Racine, WI

5:16 AM CDT on March 27, 2017 (GMT -0500)
Batten

Weather History for KRAC - November, 2013

Change the Weather History Date:

Friday, November 8, 2013

  Actual Average Record
Temperature  
Mean Temperature 37 °F -  
Max Temperature 46 °F 47 °F 73 °F (1999)
Min Temperature 28 °F 34 °F 11 °F (1991)
Degree Days  
Heating Degree Days 28    
Moisture  
Dew Point 29 °F    
Average Humidity 71    
Maximum Humidity 93    
Minimum Humidity 50    
Precipitation  
Precipitation 0.00 in - - ()
Sea Level Pressure  
Sea Level Pressure 30.21 in    
Wind  
Wind Speed 6 mph (SW)    
Max Wind Speed 14 mph    
Max Gust Speed 22 mph    
Visibility 7 miles    
Events      
Averages and records for this station are not official NWS values.
T = Trace of Precipitation, MM = Missing Value Source: NWS Daily Summary

Daily Weather History Graph

Daily Weather History Graph

Search for Another Location

Airport or City:

Trip Planner

Search our weather history database for the weather conditions in past years. The results will help you decide how hot, cold, wet, or windy it might be!

Date:

Astronomy

Nov. 08, 2013 Rise Set
Actual Time 6:34 AM CST 4:34 PM CST
Civil Twilight 6:04 AM CST 5:04 PM CST
Nautical Twilight 5:30 AM CST 5:38 PM CST
Astronomical Twilight 4:57 AM CST 6:11 PM CST
Moon 11:30 AM CST (11/8) 9:56 PM CST (11/8)
Length of Visible Light 11h 00m
Length of Day
10h 00m
Waxing Crescent, 33% of the Moon is Illuminated
Nov 8
Waxing Crescent
Nov 9
First Quarter
Nov 17
Full
Nov 25
Last Quarter
Dec 2
New

Hourly Weather History & Observations

Time (CST) Temp. Windchill Dew Point Humidity Pressure Visibility Wind Dir Wind Speed Gust Speed Precip Events Conditions
12:53 AM 32.0 °F 27.5 °F 27.0 °F 82% 30.25 in 8.0 mi WNW 4.6 mph - N/A   Clear
1:53 AM 30.9 °F 27.5 °F 26.1 °F 82% 30.26 in 7.0 mi WNW 3.5 mph - N/A   Clear
2:53 AM 30.0 °F 26.5 °F 26.1 °F 85% 30.27 in 6.0 mi West 3.5 mph - N/A   Clear
3:53 AM 28.9 °F 25.2 °F 26.1 °F 89% 30.28 in 6.0 mi West 3.5 mph - N/A   Clear
4:53 AM 28.9 °F 23.9 °F 26.1 °F 89% 30.30 in 5.0 mi West 4.6 mph - N/A   Clear
5:53 AM 28.0 °F 24.2 °F 25.0 °F 88% 30.31 in 4.0 mi West 3.5 mph - N/A   Clear
6:46 AM 28.4 °F 24.6 °F 24.8 °F 86% 30.29 in 2.5 mi West 3.5 mph - N/A   Clear
6:53 AM 28.0 °F 22.8 °F 25.0 °F 88% 30.32 in 2.5 mi West 4.6 mph - N/A   Clear
7:11 AM 28.4 °F 23.3 °F 26.6 °F 93% 30.30 in 3.0 mi WSW 4.6 mph - N/A   Clear
7:53 AM 30.9 °F 26.2 °F 28.0 °F 89% 30.33 in 4.0 mi West 4.6 mph - N/A   Clear
8:53 AM 35.1 °F 32.2 °F 28.9 °F 78% 30.33 in 5.0 mi WSW 3.5 mph - N/A   Haze
9:53 AM 39.0 °F 34.8 °F 28.9 °F 67% 30.32 in 8.0 mi Variable 5.8 mph - N/A   Clear
10:53 AM 41.0 °F 36.4 °F 26.1 °F 55% 30.30 in 10.0 mi South 6.9 mph - N/A   Clear
11:53 AM 43.0 °F 38.8 °F 28.0 °F 56% 30.27 in 10.0 mi Variable 6.9 mph - N/A   Clear
12:53 PM 42.1 °F 36.6 °F 30.0 °F 62% 30.24 in 8.0 mi South 9.2 mph - N/A   Clear
1:53 PM 43.0 °F 37.2 °F 32.0 °F 65% 30.22 in 7.0 mi SSE 10.4 mph - N/A   Clear
2:53 PM 43.0 °F 36.8 °F 32.0 °F 65% 30.18 in 7.0 mi SSE 11.5 mph - N/A   Partly Cloudy
3:53 PM 44.1 °F 39.0 °F 33.1 °F 65% 30.19 in 7.0 mi South 9.2 mph - N/A   Mostly Cloudy
4:53 PM 44.1 °F 38.6 °F 34.0 °F 68% 30.13 in 9.0 mi SSE 10.4 mph - N/A   Mostly Cloudy
5:53 PM 45.0 °F 39.7 °F 33.1 °F 63% 30.13 in 10.0 mi SSE 10.4 mph - N/A   Clear
6:53 PM 45.0 °F 38.5 °F 34.0 °F 65% 30.10 in 10.0 mi SSE 13.8 mph 20.7 mph N/A   Clear
7:53 PM 46.0 °F 40.2 °F 33.1 °F 61% 30.10 in 10.0 mi South 12.7 mph 20.7 mph N/A   Clear
8:53 PM 46.0 °F 40.6 °F 34.0 °F 63% 30.07 in 10.0 mi South 11.5 mph - N/A   Clear
9:53 PM 46.0 °F 40.2 °F 28.9 °F 51% 30.03 in 10.0 mi South 12.7 mph - N/A   Clear
10:53 PM 46.9 °F - 28.9 °F 50% 29.97 in 10.0 mi South 13.8 mph - N/A   Partly Cloudy
11:53 PM 46.9 °F - 30.0 °F 52% 29.92 in 10.0 mi South 13.8 mph 21.9 mph N/A   Overcast